Watertown, SD

3:19 PM CST on December 09, 2019 (GMT -0600)
Watertown Municipal

Weather History for KATY - October, 2019

Change the Weather History Date:

Saturday, October 19, 2019

  Actual Average Record
Temperature  
Mean Temperature 46 °F 44 °F  
Max Temperature 60 °F 55 °F 85 °F (2003)
Min Temperature 33 °F 33 °F 13 °F (1972)
Degree Days  
Heating Degree Days 18    
Month to date heating degree days 387  
Since 1 July heating degree days 539  
Cooling Degree Days 0    
Month to date cooling degree days 0  
Year to date cooling degree days 466  
Moisture  
Dew Point 35 °F    
Average Humidity 68    
Maximum Humidity 92    
Minimum Humidity 31    
Precipitation  
Precipitation 0.00 in 0.06 in 0.79 in (1984)
Month to date precipitation 1.47 1.32  
Year to date precipitation 30.89 20.19  
Snow  
Snow 0.00 in 0.10 in 1.30 in (1982)
Month to date snowfall 1.5 0.7  
Since 1 July snowfall 1.5 0.7  
Snow Depth 0.00 in    
Sea Level Pressure  
Sea Level Pressure 29.71 in    
Wind  
Wind Speed 7 mph ()    
Max Wind Speed 20 mph    
Max Gust Speed 27 mph    
Visibility 10.0 miles    
Events      
T = Trace of Precipitation, MM = Missing Value Source: Averaged Metar Reports

Daily Weather History Graph

Daily Weather History Graph

Search for Another Location

Airport or City:

Astronomy

Oct. 19, 2019 Rise Set
Actual Time 7:49 AM CDT 6:37 PM CDT
Civil Twilight 7:19 AM CDT 7:06 PM CDT
Nautical Twilight 6:45 AM CDT 7:40 PM CDT
Astronomical Twilight 6:11 AM CDT 8:14 PM CDT
Moon 10:36 PM CDT (10/19) 1:33 PM CDT (10/19)
Length of Visible Light 11h 47m
Length of Day
10h 48m
Waning Gibbous, 69% of the Moon is Illuminated
Oct 19
Waning Gibbous
Oct 21
Last Quarter
Oct 27
New
Nov 4
First Quarter
Nov 12
Full

Hourly Weather History & Observations

Time (CDT) Temp. Windchill Dew Point Humidity Pressure Visibility Wind Dir Wind Speed Gust Speed Precip Events Conditions
12:53 AM 48.9 °F - 39.9 °F 71% 29.63 in 10.0 mi West 6.9 mph - N/A   Mostly Cloudy
1:53 AM 44.1 °F 39.5 °F 39.0 °F 82% 29.65 in 10.0 mi WSW 8.1 mph - N/A   Clear
2:53 AM 41.0 °F 35.8 °F 37.9 °F 89% 29.67 in 10.0 mi WSW 8.1 mph - N/A   Clear
3:53 AM 41.0 °F 35.8 °F 37.9 °F 89% 29.66 in 10.0 mi WSW 8.1 mph - N/A   Clear
4:53 AM 41.0 °F 35.8 °F 37.9 °F 89% 29.67 in 10.0 mi West 8.1 mph - N/A   Clear
5:53 AM 39.0 °F 33.4 °F 36.0 °F 89% 29.68 in 10.0 mi WSW 8.1 mph - N/A   Clear
6:53 AM 37.0 °F 34.5 °F 34.0 °F 89% 29.72 in 10.0 mi SW 3.5 mph - N/A   Clear
7:53 AM 35.1 °F 28.6 °F 33.1 °F 92% 29.72 in 10.0 mi SSW 8.1 mph - N/A   Clear
8:53 AM 39.9 °F 36.7 °F 37.0 °F 89% 29.74 in 10.0 mi SW 4.6 mph - N/A   Clear
9:53 AM 45.0 °F 41.8 °F 37.0 °F 74% 29.75 in 10.0 mi West 5.8 mph - N/A   Clear
10:53 AM 50.0 °F - 37.9 °F 63% 29.75 in 10.0 mi NW 5.8 mph - N/A   Clear
11:53 AM 55.0 °F - 37.0 °F 51% 29.74 in 10.0 mi WNW 10.4 mph - N/A   Clear
12:53 PM 57.0 °F - 35.1 °F 44% 29.73 in 10.0 mi West 11.5 mph - N/A   Clear
1:53 PM 57.9 °F - 33.1 °F 39% 29.72 in 10.0 mi West 13.8 mph - N/A   Clear
2:53 PM 59.0 °F - 34.0 °F 39% 29.70 in 10.0 mi West 13.8 mph 21.9 mph N/A   Clear
3:53 PM 60.1 °F - 30.9 °F 33% 29.70 in 10.0 mi West 15.0 mph 23.0 mph N/A   Clear
4:53 PM 59.0 °F - 28.9 °F 32% 29.70 in 10.0 mi West 12.7 mph 21.9 mph N/A   Clear
5:53 PM 55.0 °F - 32.0 °F 42% 29.71 in 10.0 mi West 6.9 mph - N/A   Clear
6:53 PM 48.0 °F - 32.0 °F 54% 29.74 in 10.0 mi WSW 6.9 mph - N/A   Clear
7:53 PM 43.0 °F 39.5 °F 32.0 °F 65% 29.76 in 10.0 mi SW 5.8 mph - N/A   Clear
8:53 PM 37.9 °F 35.5 °F 33.1 °F 83% 29.76 in 10.0 mi South 3.5 mph - N/A   Clear
9:53 PM 41.0 °F 39.0 °F 34.0 °F 76% 29.75 in 10.0 mi South 3.5 mph - N/A   Clear
10:53 PM 37.9 °F - 32.0 °F 79% 29.75 in 10.0 mi Calm Calm - N/A   Clear
11:53 PM 37.9 °F 35.5 °F 32.0 °F 79% 29.74 in 10.0 mi SSE 3.5 mph - N/A   Clear